TimeCST,TemperatureF,Dew PointF,Humidity,Sea Level PressureIn,VisibilityMPH,Wind Direction,Wind SpeedMPH,Gust SpeedMPH,PrecipitationIn,Events,Conditions,WindDirDegrees,DateUTC
12:56 AM,34.9,29.1,79,30.07,10.0,NW,6.9,-,N/A,,Overcast,320,2013-02-23 06:56:00
1:56 AM,34.9,27.1,73,30.06,10.0,NW,6.9,-,N/A,,Overcast,320,2013-02-23 07:56:00
2:56 AM,32.9,27.1,79,30.04,10.0,NW,6.9,-,N/A,,Mostly Cloudy,320,2013-02-23 08:56:00
3:06 AM,33.8,28.4,81,30.04,10.0,NW,6.9,-,N/A,,Scattered Clouds,320,2013-02-23 09:06:00
3:56 AM,31.1,26.1,82,30.05,10.0,NNW,3.5,-,N/A,,Clear,340,2013-02-23 09:56:00
4:56 AM,30.0,25.2,82,30.06,10.0,NNW,4.6,-,N/A,,Clear,330,2013-02-23 10:56:00
5:56 AM,28.0,23.0,81,30.07,10.0,NW,4.6,-,N/A,,Clear,320,2013-02-23 11:56:00
6:56 AM,29.1,25.2,85,30.07,10.0,Calm,Calm,-,N/A,,Clear,0,2013-02-23 12:56:00
7:56 AM,31.1,23.0,72,30.06,10.0,Variable,3.5,-,N/A,,Clear,0,2013-02-23 13:56:00
8:56 AM,32.9,23.0,67,30.06,10.0,NW,4.6,-,N/A,,Clear,320,2013-02-23 14:56:00
9:56 AM,36.0,25.2,65,30.06,10.0,West,6.9,-,N/A,,Clear,280,2013-02-23 15:56:00
10:56 AM,36.9,25.2,63,30.04,10.0,NW,4.6,-,N/A,,Clear,310,2013-02-23 16:56:00
11:56 AM,38.8,25.2,58,30.03,10.0,NW,6.9,-,N/A,,Clear,310,2013-02-23 17:56:00
12:56 PM,41.9,26.1,53,30.02,10.0,WNW,6.9,-,N/A,,Clear,290,2013-02-23 18:56:00
1:56 PM,41.9,26.1,53,29.99,10.0,NW,5.8,-,N/A,,Clear,320,2013-02-23 19:56:00
2:56 PM,41.9,25.2,52,29.98,10.0,WNW,5.8,-,N/A,,Clear,300,2013-02-23 20:56:00
3:56 PM,41.9,28.0,58,29.99,10.0,WNW,8.1,-,N/A,,Clear,300,2013-02-23 21:56:00
4:56 PM,39.9,28.0,63,29.99,10.0,WNW,8.1,-,N/A,,Clear,290,2013-02-23 22:56:00
5:56 PM,36.9,28.0,70,29.99,10.0,WNW,5.8,-,N/A,,Clear,290,2013-02-23 23:56:00
6:56 PM,36.0,28.0,73,30.01,10.0,NW,5.8,-,N/A,,Clear,310,2013-02-24 00:56:00
7:56 PM,36.0,27.1,70,30.02,10.0,NNW,4.6,-,N/A,,Clear,330,2013-02-24 01:56:00
8:56 PM,34.9,26.1,70,30.02,10.0,NNW,5.8,-,N/A,,Clear,330,2013-02-24 02:56:00
9:56 PM,34.9,28.0,76,30.03,10.0,NW,5.8,-,N/A,,Clear,320,2013-02-24 03:56:00
10:56 PM,32.0,27.1,82,30.03,10.0,WNW,4.6,-,N/A,,Clear,300,2013-02-24 04:56:00
11:56 PM,31.1,25.2,79,30.04,10.0,Calm,Calm,-,N/A,,Clear,0,2013-02-24 05:56:00